TimePST,TemperatureF,Dew PointF,Humidity,Sea Level PressureIn,VisibilityMPH,Wind Direction,Wind SpeedMPH,Gust SpeedMPH,PrecipitationIn,Events,Conditions,WindDirDegrees,DateUTC
12:15 AM,30.2,30.2,100,30.10,10.0,Calm,Calm,-,N/A,,Clear,0,2014-01-05 08:15:00
12:35 AM,28.4,28.4,100,30.10,10.0,Calm,Calm,-,N/A,,Clear,0,2014-01-05 08:35:00
12:55 AM,32.0,32.0,100,30.10,10.0,Calm,Calm,-,N/A,,Clear,0,2014-01-05 08:55:00
1:15 AM,28.4,28.4,100,30.09,10.0,South,5.8,-,N/A,,Clear,190,2014-01-05 09:15:00
1:35 AM,30.2,28.4,93,30.10,10.0,Calm,Calm,-,N/A,,Clear,0,2014-01-05 09:35:00
1:55 AM,28.4,28.4,100,30.11,10.0,South,4.6,-,N/A,,Clear,180,2014-01-05 09:55:00
2:15 AM,28.4,28.4,100,30.11,10.0,Calm,Calm,-,N/A,,Clear,0,2014-01-05 10:15:00
2:35 AM,26.6,26.6,100,30.12,10.0,Calm,Calm,-,N/A,,Clear,0,2014-01-05 10:35:00
2:55 AM,28.4,28.4,100,30.12,9.0,SSW,3.5,-,N/A,,Clear,200,2014-01-05 10:55:00
3:15 AM,30.2,28.4,93,30.12,10.0,South,3.5,-,N/A,,Clear,190,2014-01-05 11:15:00
3:35 AM,32.0,32.0,100,30.12,10.0,South,6.9,-,N/A,,Clear,180,2014-01-05 11:35:00
3:55 AM,30.2,26.6,86,30.13,10.0,SSW,5.8,-,N/A,,Clear,210,2014-01-05 11:55:00
4:15 AM,35.6,30.2,81,30.13,10.0,SSW,8.1,-,N/A,,Clear,210,2014-01-05 12:15:00
4:35 AM,35.6,28.4,75,30.13,10.0,SSW,4.6,-,N/A,,Clear,210,2014-01-05 12:35:00
4:55 AM,35.6,28.4,75,30.13,10.0,SW,3.5,-,N/A,,Clear,220,2014-01-05 12:55:00
5:15 AM,32.0,28.4,87,30.13,10.0,SSW,4.6,-,N/A,,Clear,200,2014-01-05 13:15:00
5:35 AM,28.4,28.4,100,30.13,10.0,South,4.6,-,N/A,,Clear,190,2014-01-05 13:35:00
5:55 AM,28.4,28.4,100,30.14,10.0,Calm,Calm,-,N/A,,Clear,0,2014-01-05 13:55:00
6:15 AM,32.0,28.4,87,30.15,10.0,South,8.1,-,N/A,,Clear,180,2014-01-05 14:15:00
6:35 AM,32.0,26.6,80,30.15,10.0,South,8.1,-,N/A,,Clear,190,2014-01-05 14:35:00
6:55 AM,26.6,26.6,100,30.16,10.0,Calm,Calm,-,N/A,,Clear,0,2014-01-05 14:55:00
7:15 AM,26.6,26.6,100,30.16,10.0,Calm,Calm,-,N/A,,Clear,0,2014-01-05 15:15:00
7:35 AM,28.4,28.4,100,30.17,10.0,Calm,Calm,-,N/A,,Clear,0,2014-01-05 15:35:00
7:55 AM,32.0,28.4,87,30.18,10.0,SSW,4.6,-,N/A,,Clear,200,2014-01-05 15:55:00
8:15 AM,37.4,28.4,70,30.18,10.0,SSW,8.1,-,N/A,,Clear,200,2014-01-05 16:15:00
8:35 AM,39.2,28.4,65,30.20,10.0,SSW,6.9,-,N/A,,Clear,200,2014-01-05 16:35:00
8:55 AM,46.4,28.4,50,30.20,10.0,SSW,8.1,-,N/A,,Clear,200,2014-01-05 16:55:00
9:15 AM,50.0,28.4,43,30.21,10.0,SSW,8.1,-,N/A,,Clear,210,2014-01-05 17:15:00
9:35 AM,51.8,28.4,41,30.22,10.0,SSW,6.9,-,N/A,,Clear,210,2014-01-05 17:35:00
9:55 AM,53.6,30.2,41,30.22,10.0,SSW,5.8,-,N/A,,Clear,210,2014-01-05 17:55:00
10:15 AM,55.4,28.4,36,30.22,10.0,South,5.8,-,N/A,,Clear,190,2014-01-05 18:15:00
10:35 AM,55.4,26.6,33,30.22,10.0,South,5.8,-,N/A,,Clear,170,2014-01-05 18:35:00
10:55 AM,57.2,26.6,31,30.22,10.0,South,8.1,-,N/A,,Clear,190,2014-01-05 18:55:00
11:15 AM,57.2,24.8,29,30.22,10.0,South,6.9,-,N/A,,Clear,180,2014-01-05 19:15:00
11:35 AM,59.0,23.0,25,30.21,10.0,South,5.8,-,N/A,,Clear,170,2014-01-05 19:35:00
11:55 AM,59.0,23.0,25,30.20,10.0,South,4.6,-,N/A,,Clear,170,2014-01-05 19:55:00
12:15 PM,62.6,17.6,18,30.19,10.0,SE,5.8,-,N/A,,Clear,140,2014-01-05 20:15:00
12:35 PM,62.6,17.6,18,30.18,10.0,SE,4.6,-,N/A,,Clear,140,2014-01-05 20:35:00
12:55 PM,64.4,15.8,15,30.17,10.0,South,4.6,-,N/A,,Clear,170,2014-01-05 20:55:00
1:15 PM,64.4,19.4,18,30.16,10.0,SSW,9.2,-,N/A,,Clear,200,2014-01-05 21:15:00
1:35 PM,64.4,17.6,16,30.15,10.0,SSW,10.4,-,N/A,,Clear,200,2014-01-05 21:35:00
1:55 PM,64.4,17.6,16,30.15,10.0,South,8.1,-,N/A,,Clear,180,2014-01-05 21:55:00
2:15 PM,66.2,17.6,15,30.15,10.0,South,9.2,-,N/A,,Clear,190,2014-01-05 22:15:00
2:35 PM,66.2,17.6,15,30.15,10.0,South,6.9,-,N/A,,Clear,170,2014-01-05 22:35:00
2:55 PM,66.2,17.6,15,30.15,10.0,South,8.1,-,N/A,,Clear,180,2014-01-05 22:55:00
3:15 PM,66.2,17.6,15,30.15,10.0,South,4.6,-,N/A,,Clear,170,2014-01-05 23:15:00
3:35 PM,66.2,17.6,15,30.15,10.0,South,4.6,-,N/A,,Clear,170,2014-01-05 23:35:00
3:55 PM,64.4,19.4,18,30.15,10.0,SSE,4.6,-,N/A,,Clear,160,2014-01-05 23:55:00
4:15 PM,64.4,21.2,19,30.15,10.0,SSW,4.6,-,N/A,,Clear,200,2014-01-06 00:15:00
4:35 PM,62.6,23.0,22,30.16,10.0,South,4.6,-,N/A,,Clear,190,2014-01-06 00:35:00
4:55 PM,59.0,23.0,25,30.15,10.0,SSW,4.6,-,N/A,,Clear,200,2014-01-06 00:55:00
5:15 PM,55.4,21.2,26,30.16,10.0,SSW,4.6,-,N/A,,Clear,200,2014-01-06 01:15:00
5:35 PM,55.4,23.0,29,30.16,10.0,SSW,3.5,-,N/A,,Clear,210,2014-01-06 01:35:00
5:55 PM,53.6,24.8,33,30.17,10.0,SSW,4.6,-,N/A,,Clear,200,2014-01-06 01:55:00
6:15 PM,50.0,24.8,37,30.17,10.0,SSW,3.5,-,N/A,,Clear,210,2014-01-06 02:15:00
6:35 PM,50.0,26.6,40,30.18,10.0,SSW,3.5,-,N/A,,Clear,200,2014-01-06 02:35:00
6:55 PM,48.2,26.6,43,30.18,10.0,SSW,5.8,-,N/A,,Clear,200,2014-01-06 02:55:00
7:15 PM,46.4,28.4,50,30.19,10.0,SSW,5.8,-,N/A,,Clear,200,2014-01-06 03:15:00
7:35 PM,46.4,28.4,50,30.19,10.0,SSW,4.6,-,N/A,,Clear,200,2014-01-06 03:35:00
7:55 PM,44.6,28.4,53,30.19,10.0,South,4.6,-,N/A,,Clear,190,2014-01-06 03:55:00
8:15 PM,41.0,28.4,61,30.19,10.0,Calm,Calm,-,N/A,,Clear,0,2014-01-06 04:15:00
8:35 PM,39.2,28.4,65,30.20,10.0,Calm,Calm,-,N/A,,Clear,0,2014-01-06 04:35:00
8:55 PM,41.0,28.4,61,30.20,10.0,Calm,Calm,-,N/A,,Clear,0,2014-01-06 04:55:00
9:15 PM,41.0,26.6,57,30.20,10.0,Calm,Calm,-,N/A,,Clear,0,2014-01-06 05:15:00
9:35 PM,39.2,28.4,65,30.21,10.0,Calm,Calm,-,N/A,,Clear,0,2014-01-06 05:35:00
9:55 PM,35.6,24.8,65,30.21,10.0,Calm,Calm,-,N/A,,Clear,0,2014-01-06 05:55:00
10:15 PM,35.6,32.0,87,30.21,10.0,Calm,Calm,-,N/A,,Clear,0,2014-01-06 06:15:00
10:35 PM,37.4,28.4,70,30.22,10.0,Calm,Calm,-,N/A,,Clear,0,2014-01-06 06:35:00
10:55 PM,35.6,26.6,70,30.22,10.0,North,-9999.0,-,N/A,,Clear,0,2014-01-06 06:55:00
11:15 PM,39.2,26.6,61,30.22,10.0,Calm,Calm,-,N/A,,Clear,0,2014-01-06 07:15:00
11:35 PM,35.6,26.6,70,30.22,10.0,Calm,Calm,-,N/A,,Clear,0,2014-01-06 07:35:00
11:55 PM,32.0,26.6,80,30.22,10.0,Calm,Calm,-,N/A,,Clear,0,2014-01-06 07:55:00